CZ-6A DEB

Satellite information

Favourite Embed

Satellite Type and Status

DEBRISIN ORBIT

Key statistics

Satellite CZ-6A DEB at a glance.

Uptime

442

Days in orbit

Revolutions

≈ 14.6

Per day

Orbit

LEO

Low Earth Orbit

Inclination

88.9

Latest

Satellite identification and parameters

Extended collection of information and parameters for CZ-6A DEB.

Object identification

Identified? True

Debris? True

Object name: CZ-6A DEB

International designator: 2024-140TV

Object number (NORAD): 61308

Object ID (CCSDS): 61308

Country: PEOPLES REPUBLIC OF CHINA (PRC)

Current information (Y/N): Y

RCS size: SMALL

Orbital parameters

Period: 98.57 minutes

Inclination: 88.8931 deg

SMA: 7068.435 km

Apoapsis: 783.796 km

Periapsis: 596.804 km

RAAN: 292.7559 deg

Eccentricy: 0.01322725

Argument of periapsis: 352.7903 deg

Mean anomaly: 7.1402 deg

Mean motion: 14.6089108 rev/day

Mean motion (dot): 0.00006884 rev/day2

B* drag term: 0.001239653 1/REarth

Two-line elements (TLE)

Creation date: Oct. 21, 2025, 6:24 p.m.

Reference frame: TEME

Reference center: EARTH

Epoch: Oct. 21, 2025, 10:48 a.m. UTC

TLE line 0: 0 CZ-6A DEB

TLE line 1: 1 61308U 24140TV 25294.45043533 .00006884 00000-0 12397-2 0 9998

TLE line 2: 2 61308 88.8931 292.7559 0132273 352.7903 7.1402 14.60891080 61157

Live tracking on map

Real-time ground track for satellite CZ-6A DEB.

In-orbit conjunctions

A list of the most updated potential collisions computed for object CZ-6A DEB.

Target Orbit TCA Probability of collision Miss distance Type
CZ-4 DEB SSO 2025-08-17 07:34:53 0.0001162764 238.0 (m) DEBRIS
COSMOS 2251 DEB LEO 2025-05-31 19:13:11 0.0001893265 33.0 (m) DEBRIS
SL-14 R/B LEO 2025-03-12 02:36:33 0.0002309864 629.0 (m) ROCKET BODY
SL-8 R/B LEO 2025-01-11 10:10:48 0.0002802525 370.0 (m) ROCKET BODY
CZ-6A DEB LEO 2025-01-04 10:27:40 0.0003689363 322.0 (m) DEBRIS

Associated space launch

18 Low Earth Orbit communication satellites with Ku, Q and V band payloads for the G60 constellation operated by Shanghai Spacecom Satellite Technology (SSST) with funding backed by the Shanghai local government. Initial constellation will consist of 1296 satellites by 2027 with long term plans to expand it to 12000 satellites.

CZ-6A DEB was lifted into orbit during the mission ‘Long March 6A | G60 Polar Group 01’, on board a Long March 6A space rocket.

The launch took place on Aug. 6, 2024, 6:42 a.m. from Launch Complex 9A.

For more information about the launch, click the button.

Launch to space Long March 6A | G60 Polar Group 01
Long March 6A | G60 Polar Group 01

Agency: N/A

Status: Launch Successful

Launch date: Aug. 6, 2024, 6:42 a.m. UTC

Rocket: Long March 6A

Launch pad: Launch Complex 9A

Location: Taiyuan Satellite Launch Center, People's Republic of China

...

Latest news about this satellite

News about space launch
Brightness of first Chinese broadband constellation satellites alarms astronomers

The first satellites of a Chinese broadband constellation are significantly brighter than those of Western systems, posing a new challenge for astronomers.

News about space launch
Chinese rocket stage breaks up into cloud of more than 700 pieces of space debris

HELSINKI — A Chinese Long March 6A rocket’s upper stage has fragmented into a cloud of over 700 pieces of space debris, adding to concerns about long-term orbital safety. China […]

News about space launch
China's Thousand Sails Megaconstellation Kicks Off with Dangerous Debris Field

China's Thousand Sails Megaconstellation Kicks Off with Dangerous Debris Field


Newsletter sign-up

Weekly statistics, charts and insights to help you stay on top of the space industry.